Regional Weather Roundup
Issued by NWS Newport/Morehead, NC

Current Version | Previous Version | Graphics & Text | Print | Product List | Glossary On
Versions: 1 2 3 4 5 6 7 8 9 10 11 12 13 14 15 16 17 18 19 20 21 22 23 24 25 26 27 28 29 30 31 32 33 34 35 36 37 38 39 40 41 42 43 44 45 46 47 48 49 50
000 ASUS42 KMHX 211413 RWRMHX WEATHER ROUNDUP FOR EASTERN NORTH CAROLINA NATIONAL WEATHER SERVICE NEWPORT/MOREHEAD CITY NC 900 AM EST TUE FEB 21 2017 NOTE: "FAIR" INDICATES FEW OR NO CLOUDS BELOW 12,000 FEET WITH NO SIGNIFICANT WEATHER AND/OR OBSTRUCTIONS TO VISIBILITY NCZ015>017-031-032-045>047-102-103-211500- NORTH COAST CITY SKY/WX TMP DP RH WIND PRES REMARKS EDENTON MOSUNNY 49 44 84 NE6 30.31S ELIZABETH CITY MOSUNNY 50 45 83 NE8 30.31F KITTY HAWK NOT AVBL MANTEO MOSUNNY 52 41 66 E16 30.29F $$ NCZ045>047-081-094-103-104-211500- CENTRAL COAST CITY SKY/WX TMP DP RH WIND PRES REMARKS FRISCO CLOUDY 57 48 72 NE8 30.26S $$ NCZ095-097-098-100-101-211500- SOUTHERN COAST CITY SKY/WX TMP DP RH WIND PRES REMARKS BEAUFORT MOSUNNY 55 47 74 NE8G18 30.26S CEDAR ISLAND NOT AVBL JACKSONVILLE PTSUNNY 51 44 77 NE6 30.26F PINEY ISLAND PTSUNNY N/A N/A N/A NE15 30.26S WILMINGTON MOSUNNY 53 45 74 E10 30.25S $$ NCZ011>013-027>030-043-044-078>080-089-090>093-098-211500- COASTAL PLAIN CITY SKY/WX TMP DP RH WIND PRES REMARKS AHOSKIE N/A 45 40 83 NE5 30.32S CLINTON MOSUNNY 50 43 77 E3 30.28S ELIZABETHTOWN CLOUDY 48 44 85 CALM 30.26S GOLDSBORO MOSUNNY 50 43 78 E12 30.26F GREENVILLE MOSUNNY 50 43 76 NE6 30.30F HAVELOCK MOSUNNY 53 44 71 NE9 30.27F KENANSVILLE NOT AVBL KINSTON CLOUDY 50 43 76 NE8 30.29F NEW BERN PTSUNNY 49 43 80 NE6 30.29S RICHLANDS MOSUNNY 49 44 83 NE7 30.27F ROCKY MOUNT MOSUNNY 50 42 74 NE7 30.30F WASHINGTON MOSUNNY 48 42 80 NE6 30.30R WHITEVILLE PTSUNNY 51 44 77 NE6 30.25R $$ AMZ130-135-150-152-154-156-158-170-250-252-270-ANZ085-086-088-633-658-670-211500- MARINE OBSERVATIONS STATION/POSITION TIME TEMP WIND PRES WAVE SWELL AIR SEA DIR/SP/G HT/PER HT/PER (UTC) (F) (DEG/KT/KT) (MB) (FT/S) (FT/S) CHESAPEAKE LIGHT NOT AVBL 64 E VA BEACH 1350 51 53 70/ 12/ 14 1026.5 4/ 7 3/ 7 DUCK 1348 49 49 60/ 12/ 13 1025.6 2 E DUCK 1400 48 N/A 3/ 6 OREGON INLET 1342 51 51 30/ 11/ 15 1025.6 13E OREGON INLT NOT AVBL HATTERAS CG 1348 54 58 30/ 10/ 15 1024.4 DIAMOND BUOY 1350 64 75 90/ 10/ 16 1024.3 7/10 7/10 CAPE LOOKOUT 1400 54 30/ 14/ 16 1024.1 BEAUFORT LAB 1348 53 53 40/ 10/ 14 1023.6 30 SE NEW RVR IN 1308 57 40/ 14/ 17 1024.2 30 SE NEW RVR IN 1343 66 N/A 4/ 6 27 SE WRIGHTSVLE 1308 59 63 50/ 14/ 19 1023.0 5 SE WRIGHTSVLE 1308 54 56 50/ 10/ 17 1024.1 225 S CAPE HAT 1350 66 71 60/ 16/ 17 1021.9 5/ 7 2/13 41 SE CHARLESTON 1350 69 67 80/ 16/ 17 1021.6 4/ 6 $$

USA.gov is the U.S. government's official web portal to all federal, state and local government web resources and services.